TimeEDT,TemperatureF,Dew PointF,Humidity,Sea Level PressureIn,VisibilityMPH,Wind Direction,Wind SpeedMPH,Gust SpeedMPH,PrecipitationIn,Events,Conditions,WindDirDegrees,DateUTC
12:53 AM,42.1,30.9,65,29.87,10.0,Calm,Calm,-,N/A,,Overcast,0,2013-10-23 04:53:00
1:53 AM,42.1,30.9,65,29.85,10.0,Calm,Calm,-,N/A,,Overcast,0,2013-10-23 05:53:00
2:53 AM,43.0,30.0,60,29.84,10.0,Calm,Calm,-,N/A,,Overcast,0,2013-10-23 06:53:00
3:53 AM,42.1,30.0,62,29.82,10.0,NNW,6.9,-,N/A,,Overcast,330,2013-10-23 07:53:00
4:53 AM,41.0,30.9,67,29.81,10.0,NW,3.5,-,N/A,,Overcast,310,2013-10-23 08:53:00
5:53 AM,39.9,33.1,77,29.80,10.0,Calm,Calm,-,0.00,,Overcast,0,2013-10-23 09:53:00
6:53 AM,39.9,34.0,79,29.79,10.0,Calm,Calm,-,0.00,,Overcast,0,2013-10-23 10:53:00
7:53 AM,39.9,35.1,83,29.78,10.0,Calm,Calm,-,N/A,,Overcast,0,2013-10-23 11:53:00
8:53 AM,39.9,36.0,86,29.80,10.0,Calm,Calm,-,N/A,,Overcast,0,2013-10-23 12:53:00
9:02 AM,39.2,35.6,87,29.77,9.0,Calm,Calm,-,0.00,Rain,Light Rain,0,2013-10-23 13:02:00
9:26 AM,39.2,35.6,87,29.77,4.0,Calm,Calm,-,0.03,Rain,Light Rain,0,2013-10-23 13:26:00
9:53 AM,37.9,35.1,89,29.81,4.0,NW,3.5,-,0.06,Rain,Light Rain,320,2013-10-23 13:53:00
10:18 AM,37.4,35.6,93,29.77,5.0,NNW,4.6,-,0.02,Rain,Light Rain,330,2013-10-23 14:18:00
10:53 AM,37.9,36.0,93,29.81,7.0,NNW,4.6,-,0.03,Rain,Light Rain,340,2013-10-23 14:53:00
11:01 AM,37.4,35.6,93,29.77,6.0,Variable,4.6,-,0.00,Rain,Light Rain,0,2013-10-23 15:01:00
11:53 AM,39.0,37.0,93,29.80,10.0,Variable,4.6,-,0.01,Rain,Light Rain,0,2013-10-23 15:53:00
12:53 PM,39.9,37.9,93,29.79,8.0,NW,6.9,-,0.01,Rain,Light Rain,310,2013-10-23 16:53:00
1:02 PM,39.2,37.4,93,29.75,6.0,Variable,3.5,-,0.00,Rain,Light Rain,0,2013-10-23 17:02:00
1:09 PM,39.2,37.4,93,29.75,6.0,Variable,4.6,-,0.00,Rain,Light Rain,0,2013-10-23 17:09:00
1:53 PM,39.9,37.0,89,29.78,6.0,WNW,6.9,-,0.01,Rain,Light Rain,300,2013-10-23 17:53:00
2:00 PM,39.2,37.4,93,29.75,6.0,NNW,5.8,-,0.00,Rain,Light Rain,330,2013-10-23 18:00:00
2:07 PM,42.8,39.2,87,29.75,7.0,Variable,3.5,-,0.00,,Overcast,0,2013-10-23 18:07:00
2:53 PM,39.9,37.0,89,29.79,8.0,NW,6.9,-,0.01,,Overcast,310,2013-10-23 18:53:00
3:03 PM,41.0,37.4,87,29.76,8.0,Variable,6.9,-,N/A,,Overcast,0,2013-10-23 19:03:00
3:53 PM,39.9,37.9,93,29.81,6.0,NW,8.1,-,0.00,Rain,Light Rain,310,2013-10-23 19:53:00
4:53 PM,41.0,37.0,86,29.83,10.0,Variable,3.5,-,0.00,,Overcast,0,2013-10-23 20:53:00
5:16 PM,39.2,35.6,87,29.81,4.0,NNW,17.3,27.6,0.02,Rain,Light Rain,330,2013-10-23 21:16:00
5:34 PM,37.4,35.6,93,29.81,10.0,NNW,9.2,20.7,0.02,Rain,Light Rain,330,2013-10-23 21:34:00
5:45 PM,37.4,35.6,93,29.82,10.0,NW,6.9,-,0.02,,Overcast,320,2013-10-23 21:45:00
5:53 PM,37.9,35.1,89,29.86,10.0,Variable,6.9,-,0.02,,Overcast,0,2013-10-23 21:53:00
6:53 PM,39.0,34.0,82,29.88,10.0,Variable,6.9,-,N/A,,Overcast,0,2013-10-23 22:53:00
7:53 PM,37.9,35.1,89,29.91,10.0,West,8.1,-,N/A,,Overcast,260,2013-10-23 23:53:00
8:53 PM,37.9,35.1,89,29.93,10.0,West,10.4,-,N/A,,Overcast,260,2013-10-24 00:53:00
9:53 PM,37.0,35.1,93,29.94,10.0,West,10.4,-,N/A,,Partly Cloudy,260,2013-10-24 01:53:00
10:53 PM,37.0,34.0,89,29.96,10.0,WSW,9.2,-,N/A,,Clear,240,2013-10-24 02:53:00
11:53 PM,36.0,34.0,93,29.95,10.0,WSW,11.5,-,N/A,,Clear,240,2013-10-24 03:53:00